{"data":{"norad_id":67359,"epoch":"2026-05-25T00:37:08.662080Z","epoch_age_seconds":72496,"freshness":"FRESH","line1":"1 67359U 26003AB  26145.02579470  .00014739  00000+0  54410-3 0  9993","line2":"2 67359  43.0013 156.3849 0001442 264.8424  95.2263 15.27576004 20499","mean_motion":15.27576004,"eccentricity":0.0001442,"inclination_deg":43.0013,"raan_deg":156.3849,"arg_perigee_deg":264.8424,"mean_anomaly_deg":95.2263,"bstar":0.0005441,"rev_number":2049,"period_min":94.266995306899,"perigee_km":482.07167676682,"apogee_km":484.05044628776,"semimajor_km":6861.1980615273,"source":"CELESTRAK","updated_at":"2026-05-25T13:38:21.549283Z"}}